Regional Weather Roundup
Issued by NWS

Home | Current Version | Previous Version | Graphics & Text | Print | Product List | Glossary On
Versions: 1 2 3 4 5 6 7 8 9 10 11 12 13 14 15 16 17 18 19 20 21 22 23 24 25 26 27 28 29 30 31 32 33 34 35 36 37 38 39 40 41 42 43 44 45 46 47 48 49 50
000
ASUS45 KCYS 091210
RWRWY

WYOMING REGIONAL WEATHER ROUNDUP
NATIONAL WEATHER SERVICE CHEYENNE WY
600 AM MDT WED JUL 09 2014

NOTE:  "FAIR" INDICATES FEW OR NO CLOUDS BELOW 12,000 FEET
WITH NO SIGNIFICANT WEATHER AND/OR OBSTRUCTIONS TO VISIBILITY.

WYZ001-091300-
YELLOWSTONE NATIONAL PARK

CITY           SKY/WX    TMP DP  RH WIND       PRES   REMARKS
LK YELLOWSTONE   N/A     41  38  89 CALM      30.30S
6HR MIN TEMP:  41; 6HR MAX TEMP:  50;

W YELLOWSTONE  NOT AVBL

$$
WYZ002>013-054>058-071-098>099-091300-
NORTHERN WYOMING

CITY           SKY/WX    TMP DP  RH WIND       PRES   REMARKS
JACKSON        CLEAR     46  43  87 CALM      30.20S
CODY           NOT AVBL
GREYBULL       CLEAR     61  47  59 CALM      30.00S
6HR MIN TEMP:  61; 6HR MAX TEMP:  72;

WORLAND        CLEAR     58  45  62 CALM      30.02S
6HR MIN TEMP:  56; 6HR MAX TEMP:  74;

SHERIDAN       CLEAR     53  47  79 N3        30.03S
6HR MIN TEMP:  51; 6HR MAX TEMP:  61;

BUFFALO        CLEAR     56  46  69 SE5       30.09F
6HR MIN TEMP:  54; 6HR MAX TEMP:  64;

GILLETTE       CLEAR     60  48  64 SE8       30.07F
6HR MIN TEMP:  58; 6HR MAX TEMP:  66;

HULETT         FAIR      57  46  67 MISG      30.09
NEWCASTLE      FAIR      63  45  51 SE10      30.07

$$
WYZ014>020-022>026-101>103-091300-
CENTRAL WYOMING

CITY           SKY/WX    TMP DP  RH WIND       PRES   REMARKS
BIG PINEY      CLEAR     44  34  67 CALM      30.23R
6HR MIN TEMP:  44; 6HR MAX TEMP:  61;

PINEDALE       SUNNY     41  41 100 W6        30.24S
DUBOIS         FAIR      50  41  71 NW9       30.24R
LANDER         CLEAR     62  43  49 SW14      30.10S
6HR MIN TEMP:  60; 6HR MAX TEMP:  71;

RIVERTON       CLEAR     57  47  69 NW10      30.10S
6HR MIN TEMP:  57; 6HR MAX TEMP:  72;

CASPER         PTCLDY    53  43  68 NW5       30.10S
6HR MIN TEMP:  52; 6HR MAX TEMP:  65;

DOUGLAS        MOCLDY    60  49  66 CALM      30.08S
6HR MIN TEMP:  55; 6HR MAX TEMP:  64;


$$
WYZ021-027>030-104>119-091300-
SOUTHERN WYOMING

CITY           SKY/WX    TMP DP  RH WIND       PRES   REMARKS
EVANSTON       PTCLDY    61  37  41 S7        30.24S
6HR MIN TEMP:  59; 6HR MAX TEMP:  71;

FORT BRIDGER   FAIR      69  36  30 SW13      30.24S
ROCK SPRINGS   PTCLDY    65  33  30 SW6       30.19S
6HR MIN TEMP:  63; 6HR MAX TEMP:  70;

DIXON          FAIR      52  39  60 CALM      30.23S
RAWLINS          N/A     51  39  63 N6        30.18S
6HR MIN TEMP:  51; 6HR MAX TEMP:  64;

SARATOGA       FAIR      59  43  55 S8        30.21S
LARAMIE        CLEAR     52  48  86 S12       30.22S
6HR MIN TEMP:  51; 6HR MAX TEMP:  60;

CHEYENNE       CLEAR     56  52  86 CALM      30.13F
6HR MIN TEMP:  55; 6HR MAX TEMP:  64;

TORRINGTON     CLEAR     59  52  77 E9        30.03F
6HR MIN TEMP:  57; 6HR MAX TEMP:  66; 6HR PCP: TRACE;


$$


USA.gov is the U.S. government's official web portal to all federal, state and local government web resources and services.